Theta_e
298 298 298 296 294 293 293 294 297 299 300 302 304 307 312 313 312 313 316 314 314 314 311 310 312 312 312 312 311 311 312 312 312 312 312 311 311 310 310 311 311 312 312 312 312 312 312 312 311 311 311 311 312 312 312 311 311 310 310 310 313 314 312 311 312 311 311 311 310 310 311 311 311 312 312 312 312 312 313 313 313 313 311 312 314 317 319
297 298 297 296 294 293 293 295 297 300 301 301 303 307 311 313 313 313 314 312 311 312 311 310 310 311 312 312 311 311 311 311 311 312 311 311 311 311 311 311 311 311 312 311 311 312 311 311 311 312 311 312 312 311 311 310 309 310 312 314 313 313 312 311 311 311 311 311 309 308 310 310 310 311 313 313 311 312 313 312 312 313 312 312 315 316 316
297 297 297 296 294 293 293 294 298 301 301 301 304 308 311 313 313 311 311 311 311 310 310 309 308 310 312 312 311 312 311 311 311 311 310 310 310 312 311 311 312 311 312 312 312 311 312 311 311 311 311 311 312 311 311 310 310 313 316 316 313 312 313 313 312 312 312 312 310 309 310 310 310 311 313 313 312 312 312 311 313 315 313 313 314 314 316
297 297 297 296 295 293 292 294 297 301 302 302 304 308 312 313 312 311 311 311 310 310 309 308 308 310 311 311 311 312 312 312 311 310 310 310 309 310 311 311 311 311 311 312 311 311 311 311 310 310 311 310 311 311 311 310 312 315 315 314 312 312 312 312 312 312 312 310 310 310 310 311 311 311 311 311 312 312 312 311 313 314 313 313 314 313 315
297 297 297 296 295 293 292 293 297 302 303 304 306 310 313 311 311 311 311 311 311 311 310 308 309 309 310 310 310 312 312 311 310 310 310 309 309 310 310 309 310 310 311 312 311 311 311 311 310 310 310 309 310 311 310 311 314 315 312 310 310 310 310 311 311 310 310 309 309 310 310 310 310 310 311 311 312 312 313 314 313 313 313 313 313 314 315
297 297 297 296 295 293 292 293 297 302 304 304 307 310 310 309 310 310 310 310 311 311 311 310 310 310 311 311 311 311 312 312 311 311 310 310 310 309 310 309 309 309 310 311 311 311 310 311 312 312 311 309 310 310 309 311 313 312 309 309 310 309 309 310 310 310 309 309 309 310 309 310 310 310 311 311 311 312 313 313 313 313 313 313 313 314 315
297 296 297 296 296 294 292 293 296 301 304 304 305 307 307 308 310 309 309 311 312 311 310 310 310 310 310 311 311 311 312 312 312 310 310 311 311 310 310 310 309 309 309 309 311 313 314 315 316 316 314 312 311 312 310 310 311 310 309 310 311 311 311 311 310 311 310 310 310 310 310 310 310 310 311 310 311 311 312 312 312 312 313 313 314 315 315
297 296 296 296 296 295 293 293 296 300 304 305 304 304 305 307 308 307 308 311 312 308 309 309 309 309 310 310 310 310 310 311 311 310 310 310 310 311 311 311 310 310 309 308 311 314 315 315 315 316 315 314 313 313 312 311 311 310 310 311 311 311 311 311 311 312 311 310 310 310 310 310 310 310 310 310 311 311 312 312 313 313 314 313 314 316 315
296 296 296 296 296 295 293 293 296 299 303 305 304 302 302 304 307 307 309 311 310 306 307 309 308 309 310 310 309 309 309 310 309 309 308 308 309 309 310 310 311 311 311 311 311 311 311 312 311 311 312 313 312 312 311 311 311 310 310 311 311 311 310 311 312 312 312 310 310 310 309 310 310 310 311 311 312 312 312 313 313 314 314 314 315 314 313
296 296 296 296 296 295 294 293 295 298 301 304 304 302 301 302 305 307 308 309 309 306 306 308 308 309 310 309 308 308 308 308 308 308 308 307 307 307 308 308 309 310 311 310 309 308 309 309 309 308 308 309 309 310 310 309 310 310 310 311 311 310 310 310 310 311 311 310 310 310 310 310 311 311 311 311 311 311 312 312 312 313 314 314 313 312 311
295 296 296 296 296 296 295 294 295 298 299 301 304 302 300 301 303 306 307 308 308 306 306 307 307 307 308 307 307 307 307 307 307 307 308 309 308 307 307 307 309 309 308 307 307 307 307 308 307 307 307 307 307 308 308 308 308 309 309 310 309 309 310 309 309 310 310 310 310 310 311 311 311 311 310 310 310 310 311 312 312 311 311 312 311 310 310
295 296 296 296 296 295 295 294 295 297 298 300 303 303 300 300 303 305 307 307 307 305 305 306 306 306 306 305 306 307 307 307 307 307 308 309 308 307 306 306 307 307 306 305 306 306 307 307 307 307 307 307 306 306 306 307 307 308 308 308 309 309 309 308 308 309 309 309 309 310 311 311 310 309 310 310 309 309 310 310 309 309 309 310 310 309 310
296 295 295 296 295 295 295 295 295 297 298 299 302 303 300 300 303 304 306 307 306 304 305 306 305 305 305 305 305 306 306 305 305 305 307 307 307 307 306 305 305 305 304 304 305 306 306 307 307 307 307 306 307 306 306 306 307 307 307 307 308 308 308 308 308 308 309 309 309 310 310 309 308 309 310 310 309 309 309 308 308 308 309 309 309 309 308
296 296 295 296 296 295 295 295 295 296 298 300 302 302 300 300 302 303 305 306 306 304 304 304 304 303 304 305 305 305 306 306 305 305 306 306 306 306 305 304 304 304 303 304 305 305 305 306 305 306 306 306 307 308 307 307 307 307 307 307 308 308 308 308 308 308 308 308 308 309 309 308 309 310 310 310 310 309 309 308 308 308 308 308 308 308 308
295 296 296 295 296 295 295 295 295 296 298 299 302 303 300 300 301 303 304 306 305 304 303 302 302 302 304 305 304 303 305 306 305 305 305 306 305 305 304 303 303 303 303 303 304 304 305 305 305 306 306 306 307 307 306 306 307 307 307 307 307 307 308 308 308 307 307 307 307 308 308 308 309 310 309 309 309 309 309 307 307 308 307 306 307 307 307
296 296 296 296 295 295 295 295 295 296 297 298 301 302 301 300 301 302 304 305 305 303 301 300 301 303 304 304 304 303 304 304 304 304 304 305 304 303 303 303 303 303 303 303 304 304 304 305 305 306 306 306 306 306 305 305 306 306 306 306 306 307 307 307 307 307 307 307 307 307 307 308 309 309 308 307 308 308 307 306 306 306 306 305 305 305 305
296 296 296 296 295 295 295 295 294 296 297 297 299 302 302 301 300 301 304 305 303 302 301 299 301 303 302 303 303 302 302 303 303 303 304 304 304 302 302 302 302 303 302 302 303 304 303 304 304 305 305 305 305 305 305 305 306 306 305 305 306 306 306 306 306 306 307 307 307 306 307 308 309 307 306 306 306 307 306 306 306 305 305 305 305 305 305
296 296 296 296 296 296 295 295 294 295 297 297 299 301 302 300 299 300 303 304 303 302 300 299 300 301 300 300 301 301 301 302 303 303 303 303 303 302 301 301 301 302 303 302 303 303 304 304 304 304 305 304 304 305 305 305 305 306 305 305 305 306 306 305 305 305 306 306 306 305 307 307 307 306 305 305 305 306 306 305 304 304 304 304 304 304 304
296 296 296 296 296 296 296 295 295 295 296 297 298 301 302 300 299 300 302 303 303 302 300 299 300 300 299 301 302 302 301 302 302 303 303 303 302 301 302 302 301 301 302 302 303 303 303 304 304 304 304 305 305 305 305 305 304 304 304 305 305 305 305 305 305 305 305 305 305 305 306 305 304 304 304 304 305 305 304 303 303 303 303 303 303 303 303
296 296 296 296 296 296 296 295 294 294 296 297 297 300 302 299 299 300 301 302 302 301 299 298 299 299 299 300 301 301 301 302 302 302 302 302 302 301 302 303 302 301 302 302 302 302 302 303 303 303 303 304 304 303 304 304 304 304 303 304 304 304 304 304 304 305 304 305 305 306 305 304 303 303 303 303 303 303 303 302 302 302 302 302 302 302 302
296 296 296 296 296 296 296 295 294 294 296 297 298 300 302 299 298 299 300 300 301 300 298 298 299 299 299 300 299 299 300 300 300 301 301 301 301 301 302 302 302 301 301 301 301 302 301 301 302 302 302 302 303 302 303 303 303 303 303 303 303 303 303 303 303 304 303 304 305 304 303 302 302 302 302 301 302 302 301 301 301 301 301 301 301 301 301
295 296 296 296 296 296 296 296 294 294 295 296 298 300 302 299 298 299 299 300 300 299 298 299 299 299 299 299 299 298 298 299 300 300 300 301 301 301 301 301 301 300 300 301 301 302 301 300 301 301 301 301 301 301 302 302 302 302 302 302 302 302 302 302 302 302 302 303 303 303 302 302 302 301 300 301 301 301 301 300 300 300 300 300 300 300 300
295 296 296 296 296 296 296 296 294 293 295 297 297 300 301 300 299 298 299 300 300 300 300 300 299 299 299 298 298 298 298 299 299 299 300 300 301 300 300 301 301 300 300 300 300 300 300 299 300 300 299 300 301 300 300 301 301 301 301 301 301 301 301 301 301 301 301 301 301 301 301 300 300 300 300 300 300 300 300 300 300 300 300 299 299 299 299
295 295 296 296 296 295 296 296 294 292 295 297 297 299 301 300 298 298 299 299 299 299 300 299 298 298 298 297 297 298 298 298 298 299 300 300 300 300 300 300 300 300 301 301 300 299 299 298 299 299 299 300 300 300 300 300 300 300 300 300 301 300 300 300 300 300 300 300 300 300 300 299 299 299 300 300 299 299 300 299 299 299 299 299 299 299 299
295 295 295 296 296 296 296 296 294 292 295 297 298 299 300 299 298 298 299 299 299 300 300 298 297 297 297 297 297 297 297 297 297 298 298 299 299 299 299 300 300 300 300 300 299 299 299 298 299 299 299 299 299 299 299 299 299 299 299 299 300 300 299 299 299 299 299 299 299 299 298 298 299 299 298 299 299 299 299 298 298 298 298 299 299 298 299
295 295 295 296 296 295 296 295 293 292 294 297 298 299 300 298 298 298 298 299 300 300 299 299 298 297 298 298 298 297 297 297 297 298 298 298 298 298 299 300 300 300 300 300 300 299 299 298 298 298 298 299 299 299 299 299 299 299 299 299 299 299 299 298 298 298 298 298 299 298 298 298 298 298 298 298 298 298 298 298 298 298 298 298 298 299 298
295 295 296 296 296 295 294 293 291 292 295 297 298 299 299 298 298 298 297 299 300 300 299 299 299 299 298 298 297 297 297 297 297 298 298 298 298 298 299 299 300 300 300 299 299 299 298 298 298 298 298 299 299 299 299 299 299 298 298 299 299 299 298 298 298 298 298 298 298 297 297 297 297 298 298 298 298 298 298 298 299 299 299 298 299 299 299
295 295 295 295 295 294 292 290 291 294 296 297 298 299 299 299 299 298 297 298 299 299 299 298 298 299 299 298 297 297 297 297 297 297 298 298 298 298 298 299 299 299 299 299 299 298 298 298 298 298 298 299 299 299 298 298 298 298 298 299 299 298 298 298 297 297 297 297 297 297 297 297 297 298 298 298 298 298 299 299 299 299 299 298 299 299 299
295 294 294 294 294 293 292 291 292 294 296 296 298 300 300 299 299 299 297 297 298 299 299 298 298 298 298 298 298 298 297 297 297 297 297 298 298 298 298 298 299 298 298 298 298 297 297 298 297 297 298 298 298 297 297 297 297 297 298 298 298 297 298 297 297 297 297 297 297 298 298 298 298 298 298 298 299 299 298 298 299 299 299 298 298 298 298
295 294 294 293 293 293 292 292 294 295 296 297 299 300 300 300 300 298 297 297 299 299 298 298 298 298 297 298 298 298 297 297 297 297 298 298 298 298 298 298 297 298 298 297 297 297 297 297 297 298 299 299 297 296 296 296 296 297 297 297 297 297 297 297 297 297 297 298 298 298 298 298 298 298 298 299 299 298 298 298 298 298 298 298 298 297 298
295 294 294 293 293 293 292 293 295 296 298 299 300 300 300 300 298 296 295 297 299 300 299 299 299 297 297 298 297 297 297 297 298 298 298 298 298 298 298 297 297 298 297 297 296 296 296 296 296 297 298 298 297 296 296 296 296 296 296 297 297 296 297 297 298 298 298 298 298 298 298 298 298 298 298 298 298 298 298 298 298 298 298 298 298 298 298
294 295 294 293 293 294 293 292 294 296 298 299 298 297 297 297 295 294 294 296 299 300 299 299 298 297 296 297 297 297 297 297 298 298 298 298 298 297 297 297 297 298 297 295 295 295 295 296 296 296 297 297 296 296 296 296 296 296 296 296 297 296 296 297 297 298 298 298 298 297 297 298 297 297 297 297 298 298 298 297 298 298 298 298 297 297 297
294 294 294 293 293 294 294 292 293 295 297 297 297 298 297 296 294 293 293 296 299 300 298 297 297 296 296 297 298 298 297 297 298 298 297 298 297 297 296 297 298 298 296 295 295 295 296 296 296 296 297 297 296 295 295 296 296 296 296 296 296 296 296 297 297 298 298 297 297 297 297 297 297 297 297 298 298 298 298 298 298 297 297 296 296 296 296
294 294 294 293 293 294 294 294 295 297 298 298 299 300 298 296 294 292 293 297 300 299 298 297 296 296 297 297 298 298 297 297 297 297 297 298 297 296 296 296 296 296 296 296 296 295 296 296 296 295 296 297 296 296 295 296 296 296 296 296 296 296 297 298 298 297 297 297 297 297 297 298 298 297 297 297 297 297 297 297 296 295 295 295 294 294 295
295 294 294 294 294 294 295 295 297 299 300 300 300 298 296 294 293 293 295 299 300 299 298 297 296 296 297 297 297 297 297 297 298 297 297 297 297 297 296 296 295 296 296 296 296 295 295 296 296 295 295 295 295 295 295 296 296 296 295 296 296 297 298 298 298 297 297 297 297 297 297 297 297 297 297 297 297 296 296 296 295 294 294 293 293 293 293
295 296 296 295 295 296 297 298 298 300 300 299 297 295 293 293 294 295 297 299 300 299 299 298 297 297 298 297 297 297 297 297 297 297 297 297 297 296 296 295 295 295 296 296 295 295 296 296 295 295 295 295 295 295 296 296 296 296 296 296 297 297 298 298 298 297 297 297 297 297 297 297 297 297 296 296 296 295 294 294 294 293 293 292 292 292 292
296 296 297 297 297 299 300 300 300 300 298 296 294 293 294 296 297 298 300 300 300 300 299 297 297 298 297 296 297 297 297 297 297 296 297 297 296 296 296 295 295 295 295 295 295 295 296 296 295 294 294 295 295 296 296 296 295 296 296 296 297 297 297 297 297 297 297 297 297 297 297 297 297 296 296 295 295 294 294 293 293 293 292 292 291 291 291
297 297 298 299 300 300 300 300 299 296 295 294 294 296 298 299 299 299 299 298 298 299 298 297 297 298 297 297 297 297 296 296 296 296 297 296 295 295 296 295 295 295 294 294 295 295 295 295 294 294 294 295 296 296 296 295 295 296 296 296 297 297 297 297 297 297 297 297 297 297 296 296 296 295 295 295 294 294 293 293 293 293 292 292 291 291 291
298 299 300 301 300 299 299 299 297 295 295 296 297 298 299 298 297 297 298 297 297 297 297 297 297 297 297 297 297 297 297 297 296 296 297 296 295 295 295 294 294 295 294 294 295 295 294 294 294 294 294 295 296 296 295 295 295 295 296 296 297 298 298 297 297 297 297 297 296 296 296 296 295 295 295 295 294 294 293 293 293 292 292 292 291 291 291
299 299 299 299 299 298 298 298 297 296 297 299 299 297 297 296 296 297 297 296 296 297 297 297 297 298 297 297 297 297 297 297 296 296 296 296 295 295 295 294 294 294 293 293 294 294 294 294 293 293 294 295 295 295 295 295 295 295 295 296 297 298 298 298 297 297 297 297 296 296 296 296 295 295 295 294 294 293 293 293 293 292 292 291 291 291 290
298 298 297 297 298 298 298 298 298 298 297 297 297 296 296 296 296 297 296 296 296 297 297 297 297 297 298 297 297 297 297 297 297 296 295 295 296 295 294 294 294 294 293 293 294 295 294 293 293 293 294 295 295 295 295 295 295 295 295 296 297 298 298 298 297 297 297 296 296 296 296 295 295 295 295 295 294 293 293 293 293 292 292 291 290 290 290
296 296 296 297 297 298 298 298 298 298 297 296 296 296 296 296 296 296 296 296 297 297 297 297 297 297 297 297 297 297 297 297 297 295 295 295 295 294 294 294 294 293 293 294 295 295 294 293 293 294 294 295 294 294 294 294 294 294 295 296 298 298 298 298 297 297 296 296 295 296 296 295 295 295 295 295 294 294 293 293 292 292 291 291 290 290 290
295 296 296 297 298 298 297 297 297 297 296 295 295 295 295 296 296 296 296 297 297 297 297 297 297 297 297 297 297 297 297 297 296 295 295 295 295 294 294 294 293 293 294 295 295 294 294 293 293 294 295 295 294 294 294 293 293 293 295 297 298 298 297 297 297 296 296 295 295 295 295 295 295 294 294 294 294 294 293 293 292 292 291 291 291 290 289
297 298 299 298 298 296 296 296 297 297 296 295 295 296 296 297 297 297 297 297 297 297 297 297 297 296 297 297 296 297 297 296 295 295 295 295 295 294 294 293 293 294 295 295 294 294 294 294 294 295 295 295 295 294 293 292 293 294 295 297 298 298 297 297 296 296 296 295 295 295 295 295 294 294 294 294 294 294 293 293 292 292 291 291 290 290 290
297 298 297 297 296 295 295 295 296 296 296 296 296 296 297 298 298 298 298 298 297 298 297 297 297 296 297 296 296 296 296 295 295 295 295 294 294 294 294 294 294 294 294 294 294 294 294 294 295 295 295 295 294 293 293 292 294 295 296 296 297 298 298 297 296 296 296 296 295 295 295 295 294 294 293 293 293 293 293 293 292 291 291 291 291 290 291
297 296 295 296 296 296 295 295 296 296 297 297 297 297 298 298 298 299 298 298 298 297 297 297 297 296 296 296 296 296 296 295 295 295 295 294 294 295 294 295 294 294 294 293 293 293 293 294 295 295 295 294 293 292 293 293 294 295 296 296 296 297 297 297 296 296 296 295 295 295 295 295 294 293 293 293 293 292 292 292 292 291 291 290 290 290 291
296 296 295 296 296 296 295 296 296 297 297 298 298 298 299 299 298 298 298 298 298 297 297 297 297 296 296 296 296 296 296 296 295 295 295 295 294 295 294 294 293 293 293 293 293 293 293 294 295 295 295 294 294 293 293 293 293 295 295 296 296 297 297 297 296 296 296 295 295 295 295 295 294 293 292 292 292 292 292 291 291 291 290 290 290 290 290
295 296 296 296 296 296 297 297 297 297 298 299 299 299 298 299 298 298 298 298 297 297 297 296 296 296 296 296 295 295 296 295 295 295 295 295 295 294 294 294 294 294 293 293 293 294 294 295 295 296 295 295 296 296 294 293 293 295 295 295 296 297 297 297 297 296 295 295 295 295 295 295 294 293 293 292 292 292 291 291 291 291 290 290 290 289 290
294 295 295 295 296 296 297 298 298 298 298 298 299 299 299 298 298 298 298 297 297 297 297 296 295 295 295 295 295 295 295 295 295 295 295 295 294 294 294 294 293 293 293 294 294 294 295 295 296 296 295 295 296 296 295 292 293 294 295 296 296 297 297 297 297 296 295 295 296 296 295 295 295 294 293 293 292 292 291 291 291 291 291 290 290 289 289
294 294 294 295 295 296 297 297 298 298 298 298 298 299 298 298 298 298 298 297 297 296 296 296 295 295 295 295 295 295 295 295 295 295 295 295 294 294 294 294 294 293 294 294 294 295 295 295 295 296 296 295 296 296 295 293 293 294 295 296 297 297 297 297 297 296 295 296 296 296 296 296 295 294 293 292 292 291 291 291 291 291 291 291 290 290 290
294 294 294 295 296 296 296 297 297 298 298 298 298 298 298 298 298 298 297 297 297 296 296 296 295 295 295 295 295 295 295 295 294 294 295 295 295 295 295 295 294 294 295 295 295 295 296 295 295 295 294 295 296 297 296 294 293 295 296 296 296 297 297 296 296 296 296 296 295 295 296 296 295 295 294 293 292 292 292 292 291 291 292 291 291 290 290
294 294 295 295 295 296 296 296 296 297 297 297 298 298 297 297 297 297 297 297 296 296 296 296 295 295 295 295 295 295 295 294 295 295 295 295 295 295 295 295 295 295 296 296 295 295 296 295 295 294 293 294 296 297 296 294 294 295 295 296 296 297 297 297 297 296 296 296 296 296 296 296 296 295 294 293 293 293 293 293 292 291 292 291 291 290 290
Wind_Speed
32 33 34 36 39 39 39 39 35 33 34 30 23 16 7 5 4 5 12 11 10 7 6 7 6 7 9 11 14 12 7 8 10 10 10 8 6 7 7 6 6 7 7 6 7 7 6 8 8 7 6 1 8 6 4 2 1 0 5 4 4 3 2 5 7 7 9 11 13 14 10 6 7 8 6 7 8 7 7 6 5 5 6 5 5 4 1
32 33 35 37 39 40 39 39 35 30 31 31 22 11 5 5 6 3 10 12 9 7 6 7 7 8 11 13 13 13 11 9 10 10 10 8 6 7 7 6 6 6 7 7 8 7 5 6 7 8 7 2 7 5 5 2 2 1 2 3 3 2 3 4 6 6 7 8 8 9 9 6 5 4 6 6 9 11 9 6 5 5 6 7 7 5 1
32 33 35 37 39 41 40 38 36 28 27 31 20 7 5 6 6 5 7 11 8 7 6 7 7 7 10 11 11 12 10 8 9 10 10 9 7 6 6 6 8 7 7 7 7 6 6 6 5 8 7 2 5 3 3 1 2 6 8 6 2 3 3 3 5 6 5 6 4 2 3 3 3 5 7 7 9 11 8 4 5 5 6 6 7 5 1
32 33 35 37 38 41 40 38 36 28 24 29 21 7 5 5 4 4 4 5 4 6 7 8 8 7 9 8 8 9 9 9 8 6 8 11 9 6 6 7 8 7 7 8 8 7 8 8 7 7 7 4 4 5 4 2 6 9 8 5 2 4 4 6 8 8 8 8 9 9 8 7 7 8 10 11 9 9 6 4 5 5 6 6 7 6 3
32 33 35 37 38 40 40 38 37 29 23 25 19 7 5 4 3 3 3 3 4 5 5 6 6 6 6 6 6 7 9 9 6 4 4 9 8 5 7 9 8 6 7 7 7 8 9 9 9 9 9 7 1 7 3 1 8 7 3 1 1 3 5 8 10 12 13 14 15 15 13 12 12 12 13 13 12 10 6 5 7 7 6 6 6 7 9
32 33 34 36 38 39 40 39 37 30 23 23 16 5 2 4 4 4 6 4 5 3 4 6 7 8 6 5 6 7 7 9 6 4 2 7 7 4 6 9 9 9 9 7 6 8 9 9 9 9 9 7 0 5 2 1 7 5 3 4 3 4 6 8 11 13 14 15 15 15 14 13 14 14 14 13 14 13 10 8 10 9 8 8 8 9 11
31 32 33 35 37 38 39 39 36 30 24 23 15 6 6 6 4 6 8 7 6 5 7 8 8 8 5 3 5 6 7 8 8 6 3 5 7 6 5 7 9 10 11 9 5 3 4 5 6 8 7 6 4 3 3 2 4 4 4 4 3 3 5 6 9 12 13 14 14 14 14 13 14 15 15 14 14 15 14 12 12 12 12 13 13 12 12
30 32 32 33 35 37 38 37 36 32 27 22 15 10 8 7 4 6 8 7 6 5 6 6 7 6 3 2 4 5 5 6 6 6 3 3 7 8 7 8 11 12 12 8 3 6 6 6 6 8 8 5 4 5 4 3 4 4 4 3 2 2 3 5 6 8 10 12 13 13 13 14 15 16 14 14 14 15 14 12 10 11 11 12 12 11 9
30 31 32 33 34 36 36 36 35 33 29 21 12 10 12 11 9 8 7 6 6 5 5 5 5 3 3 3 5 4 4 5 5 5 3 3 5 6 9 11 11 11 9 6 8 8 6 6 7 7 8 5 3 4 3 4 6 5 5 4 2 3 3 5 5 7 8 9 12 13 13 14 15 15 13 13 13 12 11 10 9 8 8 9 9 9 7
30 30 31 32 33 35 35 34 33 32 30 21 11 10 15 14 11 10 7 6 6 6 5 4 2 3 5 6 7 6 5 6 5 4 4 5 4 4 8 11 9 6 7 9 9 8 6 6 7 7 7 8 6 5 6 7 7 5 4 4 3 3 4 5 5 6 7 9 11 11 10 10 11 9 8 10 11 11 11 11 11 10 9 8 7 7 8
30 29 30 31 32 34 34 32 30 30 29 23 13 11 16 14 10 8 6 6 6 4 4 5 4 4 7 8 8 7 7 7 7 6 6 7 7 5 7 11 9 4 7 9 9 9 8 8 8 7 8 10 10 8 9 11 10 7 5 5 4 5 6 6 6 6 7 10 11 10 8 8 6 4 4 7 9 10 9 9 9 10 9 8 7 9 10
29 28 29 30 30 32 33 31 28 26 27 25 16 12 18 17 11 6 6 6 5 5 5 5 5 6 8 8 8 7 7 7 8 8 6 8 9 7 6 9 8 6 8 10 10 9 9 9 9 10 11 11 12 12 13 13 12 9 9 8 7 6 6 6 5 6 7 8 8 8 8 6 5 7 6 5 7 8 8 9 11 11 11 12 11 11 10
28 28 28 29 29 31 32 30 27 24 24 24 18 13 18 20 12 5 5 6 5 6 6 6 8 9 9 8 7 7 6 5 6 6 6 6 8 7 5 5 7 8 9 11 10 9 8 7 8 9 10 11 12 13 14 15 14 13 12 11 9 7 5 5 5 6 6 6 7 8 8 7 8 8 6 5 3 5 7 8 8 8 10 12 12 10 9
27 28 28 28 28 29 31 30 26 23 22 23 19 14 18 21 13 6 6 6 5 7 7 6 9 11 10 8 7 7 6 4 3 4 4 4 5 7 5 5 7 8 8 8 8 6 5 4 5 6 7 7 8 10 12 14 14 15 15 12 10 8 6 5 5 6 6 7 8 8 9 11 9 5 7 6 4 4 4 4 5 7 8 7 9 10 10
27 27 27 28 28 28 30 29 25 22 21 21 18 13 17 21 15 8 7 6 5 5 7 6 8 10 10 8 6 5 5 3 2 3 2 0 3 6 3 3 6 8 7 6 5 4 4 4 5 5 5 5 6 7 7 8 10 12 13 12 11 9 7 6 6 6 6 7 7 7 8 7 2 5 8 8 7 7 6 4 4 5 5 8 9 10 12
26 26 27 28 27 28 29 28 24 21 20 22 20 14 15 19 17 12 8 6 5 4 7 8 10 9 8 7 7 7 5 4 4 4 2 1 3 5 2 3 5 7 7 5 4 3 3 4 4 5 5 6 6 6 6 6 6 3 3 5 9 9 7 6 6 6 6 6 6 7 6 2 4 6 6 7 7 6 4 3 2 6 11 10 8 8 10
25 25 26 27 27 27 29 28 24 19 18 23 22 16 13 18 19 15 9 6 4 4 6 10 10 7 5 6 7 6 5 5 5 5 3 1 2 4 5 7 5 5 4 4 4 4 4 4 4 5 5 6 6 5 5 6 5 1 3 2 6 7 6 6 7 7 7 7 7 7 4 2 6 7 6 7 7 6 4 4 1 7 10 8 7 8 8
24 25 26 27 27 27 28 28 23 18 17 22 22 16 12 17 20 16 9 6 3 4 7 10 9 6 6 7 6 4 4 5 6 5 4 3 4 6 8 8 5 2 2 4 4 3 4 4 4 5 5 5 4 4 4 4 4 2 1 3 4 4 5 6 7 8 8 8 8 6 1 3 6 8 7 5 5 3 3 3 1 5 8 8 7 8 9
24 25 25 26 27 26 26 27 23 16 16 20 21 15 11 16 20 17 10 6 5 5 8 11 10 8 8 7 6 5 5 5 5 5 4 4 7 8 8 5 4 3 4 4 4 3 4 4 3 4 5 4 3 4 6 5 3 3 3 4 4 3 4 5 6 7 7 5 7 7 3 1 5 8 7 5 3 1 1 3 4 5 8 9 8 8 9
23 24 25 26 27 26 25 25 22 15 13 18 21 15 10 14 19 15 10 8 5 3 7 11 10 9 9 8 7 7 6 5 5 6 5 4 7 8 5 2 3 5 4 4 4 3 3 4 3 3 4 4 2 3 5 5 5 5 4 5 4 2 3 5 5 5 5 5 6 6 3 1 4 6 5 5 4 3 3 5 7 7 8 9 8 8 9
23 24 25 26 26 26 25 24 21 14 10 14 19 16 11 13 16 14 11 9 6 4 7 8 9 9 8 8 7 8 8 7 5 5 5 5 7 5 3 3 5 4 3 4 5 3 3 4 4 3 3 4 1 1 3 5 5 4 3 4 5 3 3 5 4 2 2 4 4 2 2 4 4 5 5 4 4 5 5 6 7 8 8 8 8 8 9
23 23 25 26 26 26 25 23 19 13 9 11 15 14 12 13 16 19 18 10 5 3 3 2 5 6 5 7 8 8 9 8 6 6 5 5 5 3 3 5 6 5 4 4 4 4 3 4 4 3 4 4 3 4 5 4 3 1 2 2 3 3 4 4 3 1 2 5 5 3 3 4 4 6 4 4 5 6 7 8 8 8 8 8 8 9 10
23 23 24 26 26 26 24 22 18 11 7 10 13 13 14 13 16 22 19 7 2 3 4 2 1 0 1 7 7 4 4 6 6 7 6 5 4 3 3 5 5 4 4 4 4 5 4 4 4 4 4 4 5 5 5 5 5 3 2 2 1 7 9 6 4 4 5 6 6 6 7 7 7 6 6 7 7 7 8 9 8 8 9 9 9 10 11
22 23 24 25 26 25 23 22 17 9 5 7 10 11 13 12 15 19 15 5 1 3 2 1 3 2 2 5 4 2 5 5 4 4 4 4 4 3 3 5 5 4 4 5 4 4 4 4 4 3 4 4 4 4 4 4 3 4 4 3 1 9 9 6 6 6 6 5 5 7 10 10 10 9 9 9 9 9 9 9 8 9 10 11 11 12 13
22 23 24 25 25 24 22 20 16 8 4 5 10 12 11 10 14 16 12 6 4 5 1 2 3 2 1 1 3 5 6 4 3 2 2 3 4 4 5 6 5 3 3 5 5 4 4 4 3 3 4 3 3 4 4 3 3 4 4 4 3 5 6 6 7 6 6 7 7 9 11 11 9 8 8 8 9 11 11 11 11 12 13 13 13 14 14
23 23 23 24 24 23 22 19 14 7 4 4 8 11 10 10 13 15 12 9 7 6 3 2 4 1 1 2 3 4 2 2 4 4 3 3 1 0 2 4 4 3 3 4 4 4 4 4 3 4 3 2 3 4 4 4 5 5 5 5 6 6 5 6 6 6 6 7 7 9 11 9 8 8 9 10 10 12 13 14 14 14 14 14 15 16 15
22 22 24 24 23 22 21 17 10 5 3 3 5 7 7 9 12 12 13 12 7 3 2 3 4 4 5 5 2 4 2 3 4 4 4 3 1 1 2 4 4 3 3 4 3 2 3 4 3 3 3 3 3 4 5 4 4 5 6 5 5 6 5 5 5 5 5 6 8 9 10 8 8 11 13 13 13 13 14 13 13 13 13 12 13 14 14
21 22 24 23 22 21 19 13 7 4 2 1 4 7 5 6 10 10 9 10 7 4 4 4 2 1 3 3 3 5 2 4 3 3 4 4 2 1 3 4 3 2 2 3 3 3 3 4 2 1 2 3 3 3 4 4 4 5 4 2 2 3 3 3 5 5 6 8 10 10 9 9 9 12 13 13 13 13 13 12 12 11 11 12 12 13 13
20 22 24 23 20 18 15 9 5 4 4 4 7 9 5 2 7 9 9 9 7 5 6 4 1 1 1 3 4 4 2 1 2 3 4 5 4 4 5 5 4 3 2 3 4 4 3 3 3 2 1 2 1 4 4 4 5 4 2 4 2 3 3 4 7 7 8 10 11 9 9 10 12 13 13 12 11 11 11 12 12 12 12 13 12 13 13
19 22 24 22 18 15 11 6 4 6 8 8 9 9 5 1 5 9 10 9 7 5 5 4 2 0 0 2 4 5 5 3 3 4 5 5 4 5 6 4 3 3 3 3 4 4 4 3 3 1 3 4 1 5 3 4 6 2 6 7 3 5 6 7 7 7 8 10 10 10 10 11 11 11 11 11 11 11 11 11 13 14 15 15 14 13 15
19 20 22 21 16 12 8 5 4 8 11 10 8 6 2 1 5 11 12 11 9 7 6 5 3 1 2 1 1 4 7 7 6 5 6 4 4 6 6 4 2 2 3 4 3 3 4 4 3 3 2 4 1 4 3 4 7 3 5 7 5 6 7 8 7 7 8 9 10 10 10 9 9 9 9 10 13 14 12 12 15 17 17 17 17 16 16
18 18 19 18 14 9 6 4 4 6 9 8 6 4 2 4 9 13 13 11 10 8 5 4 4 1 1 1 2 1 5 6 5 5 4 3 3 5 4 3 4 2 1 3 3 3 4 3 4 5 2 3 1 4 4 5 6 4 6 8 7 6 7 8 9 8 8 8 9 10 10 9 9 10 11 12 14 15 14 15 17 17 16 16 16 16 15
16 16 15 14 11 7 4 4 4 5 6 5 3 1 2 5 11 14 11 9 9 8 5 4 4 2 1 1 2 1 3 4 4 4 2 3 1 4 3 3 5 2 2 1 2 3 3 3 4 4 1 4 2 5 4 5 6 5 7 7 7 8 8 8 9 8 7 8 8 9 9 11 12 13 14 14 14 15 15 15 15 14 14 13 12 13 14
14 13 10 10 8 5 3 2 3 6 8 7 3 0 4 10 14 12 8 6 7 7 4 3 4 3 2 2 2 1 4 4 3 3 2 2 2 4 4 3 2 1 2 2 2 3 4 4 4 4 2 2 3 4 4 6 5 6 7 7 8 8 8 8 8 8 8 8 8 8 9 11 12 12 12 12 12 13 13 13 12 12 11 11 10 11 13
11 8 6 7 7 5 4 3 5 9 9 4 2 5 10 14 13 8 4 3 5 5 2 2 3 3 4 3 1 2 3 5 3 3 4 2 1 2 3 3 2 2 2 1 3 5 4 1 2 3 4 3 3 4 4 5 4 5 7 8 7 7 8 8 8 8 8 8 8 9 10 11 10 9 9 9 9 10 11 11 11 11 10 9 10 11 11
8 6 7 10 9 7 7 8 8 6 4 5 8 11 13 13 10 5 3 4 5 4 3 3 3 3 5 4 2 3 4 4 2 2 4 3 2 2 2 4 4 1 1 1 5 5 2 1 0 4 5 4 3 1 1 2 4 5 7 7 6 7 7 8 8 9 9 9 10 9 9 10 9 8 7 8 8 9 10 10 10 10 10 10 10 10 10
8 9 13 13 10 8 8 6 2 2 5 8 12 13 11 9 6 4 5 6 7 5 3 4 3 2 4 4 2 3 4 3 3 3 3 3 3 2 3 4 3 1 1 4 5 3 2 1 1 5 6 5 1 4 5 3 4 5 6 7 7 6 7 7 8 9 10 10 11 10 9 9 8 7 7 8 8 8 8 9 9 9 10 9 9 10 10
10 12 14 13 8 5 3 0 5 9 9 8 9 8 5 4 3 4 4 4 5 5 4 5 3 2 3 4 2 1 1 3 4 4 2 2 2 2 2 3 2 1 3 5 1 1 2 4 3 5 6 2 3 5 3 2 3 4 5 6 6 6 6 6 7 8 9 9 10 10 9 9 8 7 7 7 7 7 7 8 9 9 10 10 10 11 12
12 11 10 8 4 2 3 4 9 10 6 4 4 4 3 3 3 3 2 3 3 3 2 3 3 2 3 5 3 1 0 3 5 4 2 2 2 2 2 2 1 1 5 5 2 2 4 5 4 5 4 2 6 4 2 3 4 5 6 7 6 6 6 5 5 6 7 7 7 7 7 6 6 6 6 5 5 6 7 8 10 11 11 11 12 13 13
10 9 7 5 4 7 7 7 8 7 4 5 4 2 1 2 3 2 1 2 3 2 1 2 3 2 1 4 5 2 0 2 5 4 4 3 2 1 3 3 2 2 5 4 1 1 4 5 4 5 2 3 4 2 2 3 4 5 6 7 7 6 6 6 6 7 7 7 5 5 5 4 3 4 5 5 5 6 7 8 9 11 11 12 13 13 12
9 7 6 6 8 9 9 8 7 5 4 3 2 1 2 3 3 2 2 3 4 2 2 1 3 2 1 2 4 3 1 1 2 3 4 3 1 1 4 4 2 2 5 4 0 1 4 4 5 4 1 3 3 2 3 4 5 6 6 7 7 6 6 7 7 7 7 5 4 3 2 3 4 6 7 8 7 6 6 7 8 10 11 11 11 11 11
8 9 10 12 13 12 10 8 6 4 2 2 2 2 3 3 3 3 3 3 2 1 0 1 2 3 1 1 4 3 1 1 1 3 4 3 1 1 4 4 2 3 5 4 3 3 4 5 5 4 2 6 4 3 4 4 5 7 7 7 5 5 5 6 6 6 5 4 2 2 3 5 7 7 7 8 7 6 6 6 6 7 7 7 8 9 11
11 13 12 12 11 8 5 4 3 2 2 2 2 2 3 3 3 3 3 2 1 1 1 1 1 2 1 1 2 3 2 0 1 2 4 3 2 2 4 4 3 4 4 3 3 5 5 5 5 5 2 4 4 3 4 5 6 7 7 6 5 4 6 6 5 4 3 2 2 3 5 6 7 6 6 6 6 5 4 3 2 3 4 5 7 7 8
14 11 8 6 4 2 2 2 2 2 2 3 3 3 4 4 3 3 2 1 1 2 2 1 2 4 2 1 1 3 3 1 1 1 4 4 3 3 4 4 4 4 4 3 5 5 5 5 5 6 5 1 5 5 4 4 5 4 4 5 5 4 5 5 3 2 3 4 4 5 6 6 5 5 3 3 3 3 3 2 1 2 4 6 7 6 6
11 6 3 3 2 1 2 2 2 3 4 4 4 4 5 4 3 3 1 1 0 3 4 3 3 5 5 3 2 3 3 1 2 2 3 3 3 4 4 4 4 4 4 5 6 5 5 6 5 3 1 5 7 5 2 3 2 2 4 5 4 3 3 3 1 3 4 5 5 5 4 3 3 2 1 2 3 4 4 4 4 4 5 6 7 7 7
7 4 2 3 3 2 2 2 3 3 4 4 5 5 5 5 4 4 3 1 2 4 4 4 4 5 5 4 3 3 3 2 3 3 2 3 4 4 3 4 4 4 5 6 6 5 7 6 2 3 6 7 5 3 1 2 3 3 4 4 3 2 2 1 2 4 5 5 6 5 3 2 1 1 1 2 2 3 4 5 5 5 6 6 7 8 8
5 4 3 3 3 3 4 4 5 5 4 4 5 5 5 5 4 3 3 3 3 3 3 3 4 4 4 4 4 4 3 3 4 4 3 3 4 4 3 4 5 4 5 6 6 6 6 4 2 6 6 5 5 4 2 2 4 4 4 4 2 1 0 1 3 5 5 6 5 4 3 1 1 1 1 1 2 2 3 5 5 5 6 7 7 8 9
4 3 3 3 3 3 5 5 5 6 7 6 5 5 5 4 4 3 3 2 3 3 4 3 4 4 4 3 3 4 4 3 4 4 3 3 4 3 3 4 5 4 5 6 6 6 6 2 4 6 6 5 5 4 1 3 5 5 4 3 2 2 2 3 5 6 7 7 5 4 3 2 2 2 2 1 2 2 3 4 4 5 6 7 7 8 9
4 4 3 3 3 4 5 6 7 7 7 6 6 5 5 5 5 4 3 2 3 3 4 3 3 4 4 3 3 4 5 4 4 4 4 4 4 4 4 5 6 6 6 5 5 6 5 2 3 6 6 6 6 4 1 3 5 5 4 3 2 3 4 5 6 8 8 8 6 5 4 3 3 2 2 1 1 2 2 3 3 4 5 6 7 7 8
5 4 4 4 5 6 6 7 7 7 7 6 6 5 5 5 6 4 3 3 3 3 3 3 4 4 3 3 4 4 4 4 4 4 5 5 5 5 5 6 7 6 5 5 6 5 5 4 2 2 5 6 6 5 2 3 5 5 4 3 3 4 4 6 8 9 9 9 7 5 4 4 4 3 1 1 1 1 1 1 1 2 3 4 5 5 6
4 4 4 6 7 7 7 7 7 7 7 7 6 5 4 5 5 3 1 1 3 4 4 4 4 3 3 3 4 3 3 3 4 5 6 5 5 5 6 7 7 6 6 7 6 5 4 4 3 0 2 3 5 5 3 5 7 6 5 4 4 5 6 7 8 10 10 9 8 7 6 6 6 5 3 2 2 3 4 3 2 1 2 3 3 4 5
4 4 4 5 6 7 7 7 8 8 7 7 7 6 5 5 5 3 1 0 3 6 5 4 4 4 4 4 4 3 3 3 4 6 6 5 4 5 7 7 6 6 6 7 6 5 4 4 2 1 1 3 3 5 5 6 7 6 5 5 4 6 7 8 9 10 11 10 10 9 8 7 7 7 5 3 5 6 4 4 4 2 1 2 3 3 3
Wind_Direction
1 359 357 359 2 2 2 1 2 4 2 356 345 330 298 247 267 152 149 165 187 212 247 240 233 241 247 255 256 253 259 264 265 266 258 248 243 250 261 272 273 271 276 279 272 267 265 267 267 266 269 57 85 90 88 66 60 36 284 306 38 29 271 261 271 274 280 279 274 272 261 237 254 269 271 273 276 274 269 278 287 273 271 277 278 275 224
1 359 358 359 2 3 2 1 1 4 6 360 343 318 306 292 289 208 167 175 196 227 243 241 243 245 245 250 255 258 261 260 259 264 263 258 256 256 263 280 281 279 285 280 274 277 277 270 272 274 273 99 100 103 93 77 278 23 22 9 32 327 256 242 264 273 275 267 254 252 247 228 230 271 283 283 287 280 267 275 290 274 273 275 270 278 256
2 360 359 360 2 3 3 2 1 1 3 0 347 301 299 306 281 259 193 177 197 235 245 255 261 269 272 267 262 261 261 258 260 275 284 283 282 285 284 283 283 286 289 283 277 278 277 269 268 273 271 152 130 149 124 106 350 40 47 42 13 287 281 276 270 268 271 270 266 285 312 302 285 287 285 286 296 292 280 283 286 274 279 274 269 284 146
2 1 359 360 2 4 4 3 1 359 1 358 345 295 281 302 277 280 230 187 219 241 240 257 264 273 288 289 280 267 258 252 247 262 287 282 276 286 288 281 283 287 286 286 283 273 269 272 270 265 262 241 171 159 171 139 84 64 43 27 336 284 278 277 271 269 273 281 294 314 324 309 290 286 282 277 285 298 300 287 271 278 298 286 275 293 301
3 2 360 0 3 4 5 5 3 0 3 0 344 285 254 295 300 339 348 309 279 248 236 260 269 271 277 280 283 270 260 262 245 185 260 282 280 283 285 279 276 277 275 278 286 284 279 277 274 265 260 268 129 119 153 144 102 84 22 315 255 274 259 257 262 265 270 276 286 296 299 293 286 284 282 278 281 285 276 261 270 281 286 273 281 310 313
3 2 1 1 3 5 6 6 6 4 8 9 356 310 317 342 315 9 16 321 281 300 338 329 316 312 301 289 295 286 271 273 264 211 254 307 306 280 276 276 270 269 269 262 266 275 275 277 287 286 271 268 202 124 165 128 112 112 279 245 211 253 256 255 260 261 266 272 276 281 283 283 282 282 284 286 287 282 270 265 278 285 281 278 290 302 295
4 3 2 1 2 6 7 8 8 10 16 20 15 6 16 4 332 2 3 321 293 331 344 327 310 310 311 303 300 289 279 282 279 265 270 321 312 294 287 287 282 278 271 267 276 308 312 308 325 333 315 293 290 270 239 193 150 167 252 245 200 232 257 268 274 274 276 277 279 284 285 283 283 279 278 279 280 280 277 272 271 272 275 282 288 288 284
5 4 3 3 2 5 8 9 10 16 23 23 27 33 17 356 343 350 340 320 315 328 324 299 286 294 302 304 299 283 282 294 290 278 274 319 320 314 309 308 311 303 286 282 342 46 35 359 352 354 342 325 303 295 288 280 267 255 263 254 153 160 273 301 299 288 285 284 285 284 281 282 283 281 284 289 286 280 279 279 276 271 274 283 288 288 286
5 5 4 4 3 4 9 12 11 20 26 19 20 28 7 348 343 335 320 318 324 318 300 276 275 312 358 344 327 312 298 302 299 296 313 330 327 334 333 328 325 316 311 351 34 36 21 356 346 340 329 320 314 306 305 305 298 286 273 259 177 168 263 301 300 282 281 284 282 281 284 287 282 280 291 298 290 282 280 279 277 275 281 288 291 292 290
6 6 5 5 4 4 9 13 13 20 25 16 5 13 4 352 342 334 322 309 306 304 311 315 328 352 352 345 337 327 316 317 326 335 333 317 313 358 2 337 314 314 357 19 20 2 341 329 326 324 311 297 291 290 286 287 288 283 275 270 251 243 260 275 278 278 285 287 289 299 307 294 279 281 299 296 286 287 288 281 277 280 280 276 272 275 284
7 6 5 5 5 4 7 13 15 18 20 8 349 0 6 354 333 328 326 310 308 326 354 15 41 12 349 349 344 338 336 333 348 4 350 338 344 11 17 346 323 351 22 2 345 332 317 304 299 293 287 284 281 279 277 275 272 265 258 254 252 256 261 266 271 273 279 288 298 302 289 270 270 287 313 312 301 297 302 307 309 308 302 295 290 285 290
6 6 6 5 5 4 5 11 16 18 17 6 351 1 6 352 329 325 333 324 342 20 23 26 40 17 1 2 351 351 355 344 356 8 342 332 344 352 6 357 346 2 360 335 327 322 305 291 277 264 262 264 264 263 262 262 262 258 253 251 248 246 253 263 268 268 274 285 291 277 262 262 284 286 296 328 321 307 309 308 307 315 327 327 314 296 297
6 6 5 4 5 4 3 8 14 16 16 10 360 5 7 357 345 346 344 330 354 23 18 19 27 14 1 359 348 341 344 335 342 351 335 330 337 332 342 358 347 345 342 327 321 316 304 296 284 273 268 261 257 257 255 253 252 250 250 255 254 252 256 262 267 268 273 275 263 258 271 288 292 297 332 10 339 305 297 287 295 326 341 338 325 313 313
6 5 5 4 4 4 1 5 11 13 15 11 2 2 11 6 357 349 343 332 345 15 24 21 16 2 346 348 351 335 328 334 326 325 339 345 320 304 312 337 338 334 329 319 312 301 291 293 288 279 273 265 260 259 255 253 251 247 247 249 250 253 254 252 254 255 259 268 265 267 282 286 286 325 24 31 18 3 341 305 313 320 316 332 345 344 334
7 6 6 3 3 3 0 2 9 11 12 12 5 6 16 10 356 342 343 326 318 5 36 24 356 344 333 334 348 341 330 344 332 293 269 265 305 298 290 333 342 329 310 301 296 283 277 279 275 273 269 262 260 259 259 259 252 247 248 245 239 236 233 234 241 245 252 265 270 270 273 279 316 61 55 39 34 32 16 338 323 333 1 29 27 13 357
7 6 5 3 2 2 359 0 8 10 9 10 5 3 16 12 358 345 336 319 311 359 31 16 351 339 335 335 350 0 352 343 332 310 294 93 316 306 338 43 354 318 300 291 274 268 277 268 262 269 265 260 264 266 267 262 249 253 303 271 243 229 225 235 246 249 252 257 262 265 264 283 48 55 51 42 30 8 334 289 307 19 34 36 24 10 3
7 6 5 3 2 1 358 359 5 8 8 7 358 351 12 16 2 348 328 310 331 31 34 16 356 344 353 355 357 5 351 335 333 317 311 43 310 311 4 15 336 283 287 303 280 254 259 256 257 265 260 264 279 284 282 273 255 188 57 312 256 251 246 244 246 246 247 248 254 259 258 41 34 23 29 35 18 344 298 241 278 11 14 12 1 354 348
6 5 5 3 1 0 357 356 2 7 7 6 359 354 13 19 5 354 338 310 332 47 41 16 3 3 5 344 333 343 340 339 344 316 299 15 24 346 341 344 330 264 260 295 285 268 272 265 262 272 272 276 292 299 311 312 285 256 219 216 235 260 261 254 251 249 245 244 251 254 226 55 8 356 0 4 357 333 283 252 292 350 349 351 352 341 332
4 3 4 2 359 358 356 353 358 6 3 4 3 357 9 21 11 1 357 342 343 34 39 17 7 11 7 344 336 355 355 354 2 341 324 21 19 339 315 319 351 341 305 296 299 299 287 271 267 285 285 285 309 319 316 316 304 300 293 259 236 245 266 262 257 256 257 258 261 261 244 57 334 340 353 351 332 326 322 315 312 318 330 339 338 328 325
2 360 1 0 357 356 355 350 353 3 3 2 359 342 342 19 14 359 1 1 338 15 42 23 12 16 19 19 21 13 1 360 1 355 354 5 353 337 332 29 9 332 326 339 334 327 318 304 312 330 304 301 350 352 311 293 282 289 298 283 274 283 274 263 259 266 274 270 263 267 271 279 307 330 4 20 2 348 341 327 321 323 330 329 324 320 319
360 358 359 358 354 353 352 349 350 1 6 2 356 339 339 18 14 350 339 334 321 2 36 23 21 29 28 32 26 6 10 24 12 357 355 336 334 347 13 20 1 350 2 356 332 337 354 320 316 338 311 298 302 282 293 296 291 304 334 312 300 305 282 274 289 321 285 265 267 271 223 242 287 337 8 21 360 336 326 320 316 318 319 312 307 312 313
357 358 357 356 352 351 351 348 348 1 11 4 359 349 351 14 7 339 322 298 277 338 351 358 37 38 44 62 49 16 19 36 22 5 360 333 332 7 20 9 11 10 6 353 333 341 350 321 321 338 319 309 310 306 308 298 275 322 37 284 289 354 2 319 308 338 305 291 305 315 265 267 344 17 5 336 327 318 312 309 303 306 315 316 316 322 326
355 356 355 354 351 349 350 347 345 0 19 6 0 350 344 358 0 343 331 312 235 295 292 284 20 303 109 69 51 22 46 56 31 18 17 349 344 30 36 16 6 354 4 11 344 336 337 328 337 343 327 324 322 312 310 288 273 316 340 234 123 41 20 347 310 309 313 307 307 311 312 325 348 347 319 315 319 314 313 312 312 319 328 328 323 321 321
351 352 353 353 350 349 351 347 344 359 25 7 0 344 329 343 358 348 341 355 13 301 281 31 9 343 26 24 347 343 70 58 28 38 38 342 334 7 28 12 352 336 3 1 331 315 312 313 323 318 313 336 335 312 307 295 297 358 350 281 86 52 27 342 300 298 307 306 305 318 329 339 341 332 325 325 320 317 323 325 325 327 323 318 316 311 306
350 350 352 352 349 349 350 346 346 4 43 21 9 358 344 356 3 353 345 350 338 312 281 99 55 1 315 322 341 24 42 11 336 39 36 325 327 341 349 353 340 315 329 331 318 309 301 299 311 299 295 348 356 320 323 334 340 5 350 297 310 32 22 336 306 300 300 298 313 339 347 344 335 326 322 321 319 323 327 325 322 322 315 309 307 304 299
347 349 350 349 347 349 350 347 350 15 53 32 9 2 1 11 8 2 360 351 324 294 281 75 72 9 293 68 32 9 10 350 350 4 339 297 282 244 314 333 328 305 307 309 308 316 309 296 302 299 295 24 18 321 312 327 322 313 303 299 311 325 332 332 328 315 301 299 324 351 347 329 318 318 319 324 329 329 324 318 314 312 309 306 305 302 300
346 347 348 347 347 349 350 351 3 32 56 53 14 357 5 17 13 12 10 355 335 296 309 26 50 14 9 42 4 293 314 18 354 337 332 327 336 181 296 316 325 327 326 317 305 301 294 292 305 307 301 332 346 311 296 305 308 295 287 301 325 324 325 345 343 315 300 313 329 336 327 312 313 321 321 321 322 318 313 312 312 310 310 309 306 304 303
346 347 346 346 348 350 351 360 26 45 42 29 347 328 335 15 18 21 19 1 346 325 322 347 50 28 4 16 317 292 341 22 350 345 348 334 327 317 297 292 289 291 303 303 287 265 273 287 303 305 301 316 317 303 302 299 282 273 270 280 360 348 329 337 333 318 313 318 320 322 318 309 309 312 312 311 313 312 312 317 319 318 318 317 311 309 308
345 348 347 347 348 351 355 9 35 23 349 335 324 306 285 9 25 20 16 0 339 312 304 311 278 199 281 354 345 332 336 348 356 355 329 310 309 300 280 272 281 292 286 276 278 283 281 281 286 290 84 79 319 295 303 291 276 288 36 77 56 353 326 328 336 333 319 313 317 319 311 304 306 310 311 314 321 325 325 324 321 317 315 313 311 311 311
343 347 346 345 348 353 359 11 27 9 348 326 310 296 267 154 40 14 4 352 333 312 304 305 304 234 99 353 344 327 312 323 4 346 315 318 321 296 286 299 318 307 296 275 270 288 297 287 287 280 122 117 265 281 287 287 280 316 64 67 23 339 339 338 339 330 307 306 317 319 311 310 315 316 317 325 333 334 326 318 315 316 316 316 314 311 310
341 345 344 343 346 352 356 359 4 358 344 327 313 309 303 61 14 356 351 346 330 309 294 293 292 186 142 161 290 309 318 341 1 328 286 277 286 290 304 328 308 263 285 293 279 288 299 295 292 276 170 135 215 275 290 293 276 279 50 38 8 353 347 334 327 321 311 315 325 323 319 322 326 323 323 327 328 325 320 315 318 321 323 322 318 313 314
338 343 342 340 343 351 356 341 323 341 348 345 345 354 358 349 341 336 335 335 322 296 279 295 304 285 141 166 183 258 308 322 324 295 254 228 296 315 318 296 276 269 315 308 294 298 305 306 302 294 271 124 177 274 277 273 269 297 13 9 354 352 345 329 322 324 330 337 338 328 322 325 328 324 322 322 321 321 320 319 324 328 328 323 317 316 323
338 342 339 337 342 352 352 320 299 313 321 312 309 344 345 333 332 331 330 328 310 286 273 302 312 314 326 227 177 154 320 301 282 276 223 150 354 324 302 254 268 269 147 199 269 282 272 263 275 279 200 145 211 267 268 263 278 324 351 344 337 342 336 324 321 328 337 343 338 325 316 318 321 319 316 316 319 323 326 328 332 335 331 325 322 324 331
337 338 335 334 332 324 301 290 309 310 296 273 239 8 339 331 331 330 329 319 298 280 266 281 296 301 288 225 166 92 324 306 294 298 299 112 71 331 317 296 280 232 168 185 269 270 258 257 263 263 234 204 237 256 263 273 301 337 337 329 336 337 326 323 332 337 337 335 328 318 315 318 320 319 319 321 327 335 339 341 344 343 338 335 336 336 334
336 336 330 319 307 286 259 257 277 285 284 285 13 360 334 329 329 327 326 318 298 286 272 257 279 300 300 283 114 85 298 294 312 316 308 330 10 298 300 309 292 245 176 171 278 275 273 291 290 271 267 265 257 250 259 283 320 338 324 323 337 335 326 331 336 332 331 329 323 321 324 327 330 332 331 335 344 350 350 349 350 351 347 343 343 341 339
325 313 304 301 295 282 266 257 256 263 284 334 342 328 316 318 319 302 270 273 271 279 319 321 303 323 322 312 3 37 341 315 319 298 292 300 295 267 284 298 296 292 135 228 271 276 278 86 329 276 270 269 276 309 49 6 343 329 318 324 338 338 333 334 332 328 329 328 324 326 331 334 338 345 346 349 356 359 356 356 359 359 355 352 352 350 349
318 307 302 296 284 265 254 243 242 355 336 323 319 310 299 302 303 263 241 243 230 221 264 297 299 339 330 309 331 17 352 322 312 306 307 310 308 298 282 278 289 346 281 260 261 259 230 194 251 275 274 276 329 70 76 44 339 329 330 334 339 339 335 333 330 327 326 325 327 332 337 340 348 359 1 359 5 9 6 5 5 2 360 0 360 358 359
327 315 301 286 266 250 242 54 24 2 337 316 313 305 273 251 249 231 225 219 196 191 229 270 276 297 308 303 318 35 348 314 312 314 324 322 304 290 271 271 295 336 287 284 314 68 259 255 257 271 274 269 97 93 83 25 350 347 343 339 340 338 334 334 334 330 327 328 331 334 336 343 356 5 4 6 15 20 17 15 13 10 9 8 4 4 6
327 318 300 280 277 336 2 7 0 351 332 283 274 274 227 205 234 253 238 213 198 194 227 258 263 271 298 308 317 81 87 313 306 301 307 322 319 314 306 305 341 294 282 291 39 82 269 270 268 271 270 133 109 102 53 15 3 350 344 344 343 336 330 332 336 333 327 325 329 338 343 350 358 2 6 15 25 31 32 27 19 13 13 11 7 7 8
331 324 310 307 344 353 343 334 334 327 292 250 242 244 255 257 256 269 292 266 254 237 194 232 262 267 290 306 311 322 125 294 301 310 317 313 309 313 301 304 333 315 291 287 114 137 275 284 283 281 285 96 99 71 5 5 354 349 351 347 339 334 332 335 343 343 334 331 345 4 6 4 12 20 24 30 34 35 34 28 18 12 11 8 5 5 4
343 332 322 326 326 317 308 304 296 275 265 279 276 242 263 269 255 253 282 270 261 243 181 223 280 277 172 257 292 290 209 229 289 305 299 289 267 258 282 291 305 291 282 283 288 254 273 278 281 282 291 96 84 34 13 6 351 351 356 348 338 338 338 339 347 352 347 344 3 27 29 43 55 49 40 42 47 43 33 25 17 12 10 5 358 356 356
305 291 294 299 294 282 272 271 266 244 240 291 283 248 249 254 250 256 256 247 260 292 140 181 296 311 344 311 298 296 273 93 338 293 278 278 284 260 276 288 290 269 273 288 302 284 272 273 279 272 169 129 111 54 29 16 354 350 352 347 343 348 348 345 353 7 11 13 40 81 80 64 57 49 40 43 51 51 41 30 18 7 0 352 345 345 348
289 280 279 281 280 272 260 258 245 202 201 234 233 239 251 239 229 245 251 224 212 245 188 173 269 295 326 27 298 284 271 265 312 281 271 269 267 266 273 278 271 271 282 287 275 270 271 272 276 272 220 149 125 89 46 15 357 352 351 347 344 352 355 356 8 35 55 81 113 107 85 67 59 52 43 42 50 57 56 41 356 332 331 335 339 342 345
297 280 261 253 264 275 266 252 197 179 218 227 209 225 247 240 223 234 243 191 189 243 250 266 282 282 280 292 295 282 272 230 154 263 277 280 275 268 267 265 265 277 289 279 266 271 272 263 266 271 269 175 94 87 60 13 359 346 332 332 338 349 358 6 34 89 123 133 120 93 76 68 63 56 39 14 15 37 49 45 359 338 344 350 353 351 350
292 280 252 258 285 271 230 220 185 201 227 229 218 234 258 273 281 284 283 113 223 277 286 293 289 286 288 290 284 279 272 230 181 226 264 284 282 269 266 270 275 278 278 272 270 272 272 271 277 285 75 83 82 82 56 360 339 280 291 319 338 353 3 13 73 143 149 137 118 98 84 75 66 59 39 347 341 5 27 32 23 8 2 2 1 358 359
286 291 285 268 265 246 229 233 228 225 230 223 218 232 256 283 300 312 330 330 289 288 294 296 291 288 287 280 265 258 259 256 256 259 260 265 266 263 267 278 278 270 268 271 272 272 274 279 298 94 98 95 101 129 175 344 330 305 314 330 338 357 12 28 159 163 155 144 131 118 106 95 81 80 69 32 358 5 22 26 20 14 12 9 7 4 3
287 285 270 256 255 246 237 236 237 246 262 267 257 261 283 303 310 312 315 309 302 301 300 294 290 287 283 276 267 261 251 244 253 261 265 264 263 264 269 270 266 260 261 265 266 269 275 279 118 121 126 129 145 169 194 335 324 312 323 327 297 249 97 172 177 168 162 159 149 135 125 127 146 147 105 53 16 25 36 32 24 20 17 15 15 14 9
298 293 275 263 260 245 240 248 257 259 264 274 278 277 279 284 285 284 288 296 297 289 283 284 286 282 273 257 252 259 262 254 248 249 250 256 263 267 262 257 254 254 260 262 262 267 272 257 132 141 154 149 151 169 210 322 313 307 324 329 286 220 184 187 185 177 177 180 171 156 163 201 217 187 153 103 42 40 40 30 24 23 22 22 25 24 19
279 284 269 259 268 272 272 280 283 278 275 282 288 280 267 260 266 275 279 275 272 276 279 281 280 277 273 267 256 254 252 248 248 246 238 235 239 244 247 250 254 258 258 258 262 271 277 258 151 158 159 147 152 176 235 325 313 305 320 323 272 210 185 185 186 184 190 197 193 181 189 221 237 217 172 124 57 48 41 28 27 30 27 24 27 28 24
253 260 256 253 265 279 285 284 282 281 282 283 282 281 277 269 266 274 287 279 266 266 267 260 254 258 270 278 275 264 253 246 247 249 244 240 242 244 245 249 255 261 264 269 275 280 288 292 268 197 151 145 162 184 222 307 300 292 302 300 249 197 180 186 191 192 197 203 203 198 204 224 239 235 192 151 156 149 113 46 23 34 37 32 32 33 30
235 240 247 251 257 268 282 288 285 285 289 289 287 294 301 284 270 277 16 10 262 256 255 250 244 244 247 245 246 256 266 259 247 244 244 244 244 245 244 248 254 261 268 277 283 287 294 301 299 184 130 150 174 177 205 287 292 288 289 282 242 196 182 187 195 200 203 205 210 215 218 224 241 246 222 182 208 222 201 176 153 81 57 53 41 36 42
230 241 258 265 265 268 275 279 279 280 282 283 284 290 296 287 276 276 354 333 252 252 258 262 254 243 237 233 234 247 265 259 246 246 248 245 245 249 252 256 263 268 270 275 279 283 289 294 287 173 234 273 238 192 205 260 281 280 274 272 249 206 189 186 194 204 207 204 208 217 218 220 239 252 245 228 244 252 227 159 133 117 88 82 66 46 49